When you browse on this site, cookies collect data to enhance your experience and personalize the content and advertising you see.
Visit our Privacy Policy to learn more. By continuing to use the site, you agree to this use of cookies and data.
  • In Lithuania
  • List of Countries
  • For 7 days
  • Water Temperature
  • Satellite Maps
  • Weather Map
  • Weather Widgets
  • user-avatar
    Login

    Hourly Weather Kruch

    Today, 23 March, Saturday

    Time Temperature Precipitation Wind Pressure Humidity
    00:00 -6°C° 0 mm 7 mps 742 mmHg 85%
    01:00 -4°C° 0.1 mm 7 mps 742 mmHg 86%
    02:00 -4°C° 0.1 mm 7 mps 742 mmHg 87%
    03:00 -4°C° 0 mm 6 mps 742 mmHg 90%
    04:00 -4°C° 0 mm 6 mps 742 mmHg 90%
    05:00 -4°C° 0 mm 7 mps 742 mmHg 90%
    06:00 -3°C° 0 mm 7 mps 743 mmHg 91%
    07:00 -3°C° 0.1 mm 7 mps 744 mmHg 91%
    08:00 -3°C° 0.1 mm 6 mps 744 mmHg 92%
    09:00 -2°C° 0 mm 6 mps 745 mmHg 92%
    10:00 -2°C° 0.1 mm 6 mps 746 mmHg 91%
    11:00 -2°C° 0.1 mm 6 mps 746 mmHg 90%
    12:00 -2°C° 0.1 mm 6 mps 747 mmHg 89%
    13:00 -2°C° 0 mm 6 mps 747 mmHg 90%
    14:00 -2°C° 0 mm 6 mps 748 mmHg 90%
    15:00 -2°C° 0 mm 6 mps 748 mmHg 90%
    16:00 -1°C° 0 mm 5 mps 748 mmHg 89%
    17:00 -1°C° 0 mm 5 mps 749 mmHg 87%
    18:00 -2°C° 0 mm 5 mps 749 mmHg 86%
    19:00 -2°C° 0 mm 4 mps 749 mmHg 87%
    20:00 -2°C° 0 mm 4 mps 749 mmHg 88%
    21:00 -2°C° 0 mm 4 mps 749 mmHg 89%
    22:00 -1°C° 0 mm 3 mps 749 mmHg 90%
    23:00 -2°C° 0 mm 3 mps 749 mmHg 91%

    Tomorrow, 24 March, Sunday

    Time Temperature Precipitation Wind Pressure Humidity
    00:00 -2°C° 0 mm 3 mps 749 mmHg 91%
    01:00 -2°C° 0 mm 3 mps 749 mmHg 92%
    02:00 -3°C° 0 mm 2 mps 748 mmHg 92%
    03:00 -3°C° 0 mm 2 mps 748 mmHg 92%
    04:00 -3°C° 0 mm 2 mps 748 mmHg 92%
    05:00 -4°C° 0 mm 2 mps 747 mmHg 91%
    06:00 -2°C° 0 mm 1 mps 747 mmHg 91%
    07:00 -2°C° 0 mm 1 mps 747 mmHg 90%
    08:00 -3°C° 0 mm 2 mps 746 mmHg 89%
    09:00 -2°C° 0 mm 2 mps 746 mmHg 89%
    10:00 -2°C° 0 mm 2 mps 745 mmHg 89%
    11:00 -1°C° 0 mm 3 mps 745 mmHg 89%
    12:00 -1°C° 0 mm 3 mps 745 mmHg 90%
    13:00 -2°C° 0.3 mm 4 mps 744 mmHg 92%
    14:00 -2°C° 0.3 mm 4 mps 743 mmHg 94%
    15:00 -2°C° 0.3 mm 4 mps 743 mmHg 95%
    16:00 -1°C° 0.2 mm 5 mps 742 mmHg 95%
    17:00 -1°C° 0.2 mm 5 mps 742 mmHg 95%
    18:00 -1°C° 0.2 mm 5 mps 741 mmHg 95%
    19:00 -2°C° 0 mm 4 mps 741 mmHg 94%
    20:00 -2°C° 0 mm 4 mps 742 mmHg 94%
    21:00 -2°C° 0 mm 3 mps 742 mmHg 94%
    22:00 -3°C° 0 mm 4 mps 742 mmHg 92%
    23:00 -3°C° 0 mm 4 mps 742 mmHg 91%

    Day after tomorrow, 25 March, Monday

    Time Temperature Precipitation Wind Pressure Humidity
    00:00 -3°C° 0 mm 4 mps 742 mmHg 89%
    01:00 -3°C° 0 mm 4 mps 742 mmHg 89%
    02:00 -4°C° 0 mm 4 mps 742 mmHg 88%
    03:00 -5°C° 0 mm 4 mps 742 mmHg 88%
    04:00 -5°C° 0 mm 4 mps 742 mmHg 88%
    05:00 -5°C° 0 mm 4 mps 742 mmHg 88%
    06:00 -7°C° 0 mm 4 mps 742 mmHg 88%
    07:00 -5°C° 0 mm 4 mps 743 mmHg 87%
    08:00 -4°C° 0 mm 4 mps 743 mmHg 85%
    09:00 -3°C° 0 mm 4 mps 743 mmHg 84%
    10:00 -3°C° 0 mm 4 mps 743 mmHg 85%
    11:00 -2°C° 0 mm 4 mps 743 mmHg 85%
    12:00 0°C° 0 mm 3 mps 743 mmHg 86%
    13:00 0°C° 0 mm 3 mps 743 mmHg 87%
    14:00 +1°C° 0 mm 3 mps 743 mmHg 88%
    15:00 +1°C° 0 mm 3 mps 743 mmHg 89%
    16:00 0°C° 0 mm 3 mps 743 mmHg 88%
    17:00 0°C° 0 mm 3 mps 743 mmHg 87%
    18:00 -1°C° 0 mm 3 mps 743 mmHg 86%
    19:00 -1°C° 0 mm 3 mps 743 mmHg 86%
    20:00 -2°C° 0 mm 3 mps 744 mmHg 85%
    21:00 -2°C° 0 mm 3 mps 744 mmHg 84%
    22:00 -4°C° 0 mm 3 mps 744 mmHg 84%
    23:00 -4°C° 0 mm 3 mps 744 mmHg 83%

    26 March, Tuesday

    Time Temperature Precipitation Wind Pressure Humidity
    00:00 -4°C° 0 mm 3 mps 744 mmHg 82%
    01:00 -4°C° 0 mm 3 mps 744 mmHg 81%
    02:00 -4°C° 0 mm 3 mps 743 mmHg 81%
    03:00 -4°C° 0 mm 3 mps 743 mmHg 80%
    04:00 -2°C° 0.1 mm 3 mps 743 mmHg 82%
    05:00 -2°C° 0.1 mm 3 mps 743 mmHg 84%
    06:00 -2°C° 0.1 mm 3 mps 742 mmHg 86%
    07:00 -2°C° 0.3 mm 4 mps 742 mmHg 86%
    08:00 -2°C° 0.3 mm 4 mps 742 mmHg 87%
    09:00 -1°C° 0.3 mm 4 mps 742 mmHg 87%
    10:00 -1°C° 0.2 mm 5 mps 742 mmHg 89%
    11:00 0°C° 0.2 mm 5 mps 741 mmHg 91%
    12:00 0°C° 0.2 mm 5 mps 741 mmHg 92%
    13:00 0°C° 0 mm 5 mps 740 mmHg 93%
    14:00 0°C° 0 mm 4 mps 740 mmHg 94%
    15:00 0°C° 0 mm 4 mps 739 mmHg 95%
    16:00 0°C° 0 mm 4 mps 739 mmHg 94%
    17:00 0°C° 0 mm 4 mps 738 mmHg 94%
    18:00 0°C° 0 mm 4 mps 737 mmHg 94%
    19:00 0°C° 0.9 mm 4 mps 737 mmHg 94%
    20:00 0°C° 0.9 mm 4 mps 737 mmHg 95%
    21:00 0°C° 0.9 mm 5 mps 736 mmHg 95%
    22:00 -1°C° 0.2 mm 5 mps 736 mmHg 94%
    23:00 -1°C° 0.2 mm 5 mps 736 mmHg 92%

    27 March, Wednesday

    Time Temperature Precipitation Wind Pressure Humidity
    00:00 -3°C° 0.2 mm 6 mps 735 mmHg 90%
    01:00 -3°C° 0 mm 6 mps 735 mmHg 90%
    02:00 -3°C° 0 mm 6 mps 735 mmHg 90%
    03:00 -4°C° 0 mm 6 mps 735 mmHg 91%
    04:00 -4°C° 0.1 mm 6 mps 735 mmHg 90%
    05:00 -4°C° 0.1 mm 6 mps 735 mmHg 89%
    06:00 -5°C° 0.1 mm 6 mps 735 mmHg 88%
    07:00 -6°C° 0.1 mm 7 mps 735 mmHg 88%
    08:00 -6°C° 0.1 mm 7 mps 736 mmHg 88%
    09:00 -6°C° 0.1 mm 7 mps 736 mmHg 87%
    10:00 -4°C° 0.1 mm 6 mps 736 mmHg 89%
    11:00 -4°C° 0.1 mm 5 mps 737 mmHg 91%
    12:00 -2°C° 0.1 mm 4 mps 737 mmHg 93%
    13:00 -2°C° 0.3 mm 5 mps 738 mmHg 92%
    14:00 -2°C° 0.3 mm 7 mps 739 mmHg 91%
    15:00 -2°C° 0.3 mm 8 mps 739 mmHg 90%
    16:00 -2°C° 0.1 mm 8 mps 740 mmHg 88%
    17:00 -2°C° 0.1 mm 8 mps 741 mmHg 86%
    18:00 -2°C° 0.1 mm 8 mps 742 mmHg 84%
    19:00 -2°C° 0 mm 8 mps 743 mmHg 84%
    20:00 -4°C° 0 mm 8 mps 744 mmHg 84%
    21:00 -4°C° 0 mm 8 mps 745 mmHg 84%
    22:00 -3°C° 0 mm 7 mps 746 mmHg 85%
    23:00 -4°C° 0 mm 7 mps 746 mmHg 86%

    28 March, Thursday

    Time Temperature Precipitation Wind Pressure Humidity
    00:00 -6°C° 0 mm 7 mps 747 mmHg 86%
    01:00 -5°C° 0 mm 6 mps 747 mmHg 86%
    02:00 -5°C° 0 mm 6 mps 748 mmHg 86%
    03:00 -5°C° 0 mm 6 mps 748 mmHg 86%
    04:00 -6°C° 0 mm 6 mps 748 mmHg 85%
    05:00 -6°C° 0 mm 6 mps 748 mmHg 85%
    06:00 -7°C° 0 mm 5 mps 748 mmHg 85%
    07:00 -6°C° 0.1 mm 6 mps 749 mmHg 85%
    08:00 -6°C° 0.1 mm 6 mps 749 mmHg 84%
    09:00 -5°C° 0.1 mm 6 mps 749 mmHg 84%
    10:00 -5°C° 0 mm 6 mps 749 mmHg 84%
    11:00 -4°C° 0 mm 6 mps 749 mmHg 84%
    12:00 -3°C° 0 mm 6 mps 749 mmHg 84%
    13:00 -3°C° 0 mm 6 mps 749 mmHg 85%
    14:00 -2°C° 0 mm 6 mps 748 mmHg 86%
    15:00 -2°C° 0 mm 6 mps 748 mmHg 87%
    16:00 -1°C° 0 mm 5 mps 748 mmHg 87%
    17:00 -1°C° 0 mm 5 mps 748 mmHg 86%
    18:00 -1°C° 0 mm 5 mps 748 mmHg 86%
    19:00 -1°C° 0 mm 5 mps 748 mmHg 87%
    20:00 -1°C° 0 mm 5 mps 747 mmHg 88%
    21:00 -1°C° 0 mm 5 mps 747 mmHg 89%
    22:00 -1°C° 0.1 mm 5 mps 746 mmHg 89%
    23:00 -2°C° 0.1 mm 6 mps 746 mmHg 89%
    Show more